Theta_e
293 286 280 281 284 284 284 282 281 284 285 282 280 281 283 283 282 282 283 285 286 288 290 293 294 294 296 295 295 295 295 294 294 292 291 291 291 291 291 292 293 293 292 293
287 281 286 287 287 285 284 281 280 283 284 281 280 281 282 283 283 283 284 284 285 287 289 291 293 293 293 294 294 294 295 294 294 293 292 292 291 291 292 293 293 293 293 293
283 285 288 286 283 283 281 281 279 280 281 281 278 278 279 282 283 283 283 284 285 286 287 289 291 290 291 291 292 294 295 294 294 294 293 291 291 291 291 291 292 293 294 293
283 286 286 283 281 282 281 281 281 279 275 272 277 270 277 279 280 282 282 282 283 283 287 288 288 289 289 289 292 294 294 294 295 294 292 291 290 289 290 290 291 292 292 292
281 282 282 281 280 282 280 281 280 278 272 271 271 265 273 277 277 279 280 281 282 283 284 285 286 287 288 288 289 292 293 293 293 293 292 290 290 290 290 290 289 289 290 291
281 284 282 281 282 282 281 279 278 276 269 263 264 266 271 275 278 278 280 281 282 283 283 284 285 286 286 286 287 288 289 289 290 290 290 290 289 289 288 288 287 288 288 289
279 280 281 282 279 281 279 271 265 264 265 266 260 267 275 278 279 279 280 280 281 282 282 283 283 283 284 284 285 287 287 286 287 287 287 287 287 287 286 286 286 286 287 287
268 269 276 281 279 277 276 270 265 259 262 266 260 266 275 277 279 279 281 281 282 282 283 283 282 283 282 282 282 283 284 284 285 285 285 285 285 285 285 285 285 285 285 286
270 272 279 280 280 278 275 267 274 261 254 259 266 270 276 278 275 277 279 280 281 281 282 282 282 281 281 280 281 281 282 282 283 283 282 283 283 283 283 283 284 284 284 286
276 269 273 280 280 278 275 276 267 264 261 257 262 258 271 270 272 275 278 278 279 281 281 281 281 281 282 280 280 280 281 281 281 282 281 282 282 282 282 282 282 282 283 284
274 269 271 276 269 269 270 268 269 268 268 262 259 267 271 270 268 274 276 279 278 278 280 281 281 281 282 282 280 280 280 281 281 281 281 281 281 281 281 281 281 282 282 283
279 275 266 270 274 276 275 272 274 267 263 265 265 269 269 266 265 264 271 276 274 273 277 277 280 280 281 281 279 279 280 280 281 281 281 281 281 281 280 280 281 281 281 282
279 269 263 270 271 274 271 275 274 269 272 266 263 271 266 263 265 270 271 274 277 274 270 274 276 278 279 279 279 279 279 280 281 280 280 280 280 280 280 280 280 281 281 281
284 275 268 268 268 267 268 272 274 271 263 271 268 275 275 276 269 271 270 271 271 269 270 270 271 275 278 278 277 278 279 279 279 279 279 279 280 280 280 280 280 280 281 280
278 267 271 270 268 267 270 271 270 269 273 268 275 267 274 276 269 272 270 267 266 270 269 270 271 272 274 274 275 275 275 277 277 277 276 277 279 279 279 279 279 280 280 280
279 265 266 264 272 273 269 273 274 272 274 269 272 273 280 280 260 267 273 266 269 271 271 271 269 270 272 274 275 275 274 275 273 271 274 274 274 275 275 277 278 279 279 279
272 265 260 262 264 263 264 267 272 268 264 268 266 273 263 267 267 269 272 266 271 272 271 271 271 271 272 273 273 272 273 269 268 268 272 272 271 271 272 273 275 276 277 278
267 264 258 263 259 257 271 272 271 269 271 268 269 274 273 268 268 268 266 266 270 269 270 268 270 269 271 269 268 270 268 269 269 268 271 272 270 270 272 272 273 273 275 274
277 269 261 260 251 266 272 271 270 270 271 275 273 274 274 271 272 275 276 272 272 270 272 272 271 271 269 270 273 268 268 269 266 269 271 273 272 271 272 272 273 274 275 274
274 278 269 254 256 257 269 272 275 274 267 274 274 275 275 273 269 276 276 277 277 277 277 277 278 278 277 278 278 274 273 272 272 274 274 273 272 271 271 272 273 274 274 274
266 270 270 267 263 264 273 274 275 265 270 275 275 277 275 273 277 276 277 277 278 278 278 278 278 277 278 279 278 277 276 275 278 278 276 274 273 273 273 273 273 273 272 273
267 265 263 264 261 262 274 273 271 276 276 276 276 276 276 277 277 276 276 277 277 277 277 278 277 277 278 278 277 277 276 278 278 277 277 276 276 277 277 275 275 273 272 272
267 271 264 268 269 275 275 276 278 278 277 276 276 278 277 277 276 278 277 277 277 277 278 278 277 276 277 277 277 276 277 277 276 274 274 274 275 276 276 275 275 274 275 275
271 272 269 268 272 274 276 277 277 277 277 278 279 278 278 277 278 277 277 277 277 277 276 275 273 273 274 275 275 275 276 276 272 272 273 274 273 274 274 274 275 275 275 274
272 269 265 267 273 273 274 276 277 277 277 277 278 278 278 277 278 278 278 278 277 277 276 274 273 273 273 274 273 273 273 270 271 272 273 273 273 273 273 274 276 276 276 275
272 271 269 271 275 274 275 277 276 274 274 275 274 275 276 277 277 278 279 278 278 277 275 274 273 273 274 273 272 271 272 271 271 271 272 273 273 273 273 274 275 279 279 280
Wind_Speed
5 7 3 2 2 2 2 2 2 1 2 3 2 5 5 1 3 3 2 1 2 5 5 6 7 8 7 4 7 7 7 6 5 2 2 0 2 2 2 2 4 3 3 2
6 3 2 3 5 4 5 2 3 4 4 2 5 9 7 5 4 5 5 3 2 4 6 7 8 7 7 2 4 6 6 6 4 2 2 2 1 1 2 1 3 3 3 3
5 1 5 3 6 5 3 2 3 3 7 3 7 7 4 3 2 2 1 2 1 0 3 5 7 7 7 7 2 5 6 6 3 3 2 2 2 1 2 1 2 2 4 4
6 5 3 4 4 2 1 2 1 2 4 3 4 7 6 6 7 5 5 4 3 1 2 3 5 6 7 6 4 4 4 4 3 4 2 2 2 1 1 1 2 4 4 4
2 4 5 6 1 1 1 3 2 2 4 5 4 5 10 1 7 9 8 7 5 3 2 3 4 4 5 6 6 6 7 6 4 3 2 1 1 1 1 2 4 4 4 4
3 2 4 1 2 3 1 2 6 4 4 4 3 4 9 6 7 4 4 7 6 5 3 2 2 4 5 6 6 6 7 6 6 5 5 4 3 2 3 3 4 4 3 4
4 2 3 4 1 2 6 7 5 8 6 7 3 1 13 5 5 4 9 8 7 5 2 0 3 4 5 6 6 5 6 6 6 6 6 6 4 4 3 4 3 5 4 3
4 8 2 5 3 1 3 6 7 5 2 7 2 8 9 2 6 3 6 7 6 6 4 4 3 2 3 5 5 6 6 5 6 6 6 5 5 3 2 3 3 3 3 4
3 5 2 4 3 3 2 3 3 8 2 4 4 10 9 4 4 1 6 7 8 7 6 6 4 3 2 3 4 4 5 4 5 5 5 5 4 5 4 5 4 3 4 5
2 5 2 4 1 4 4 2 5 5 1 7 6 7 9 7 8 5 8 9 9 8 8 7 6 5 3 2 1 2 2 2 2 2 3 3 4 4 4 4 5 5 5 5
4 5 6 2 3 7 2 2 4 3 4 5 4 8 9 8 5 11 11 10 8 8 8 7 5 3 3 2 1 1 1 2 3 3 3 4 4 5 5 5 5 5 5 5
1 4 4 9 1 1 2 6 6 6 8 5 2 11 3 5 5 4 7 8 6 6 8 6 6 5 5 5 3 2 2 3 3 3 4 5 5 5 5 5 6 5 6 6
3 2 5 9 5 4 3 4 3 2 2 9 3 12 2 4 6 8 10 11 12 7 5 5 5 6 6 5 4 4 4 5 4 4 4 5 5 5 6 6 6 6 6 6
1 2 9 9 8 4 3 4 6 6 4 8 11 27 12 14 6 7 8 11 7 7 7 5 5 7 6 5 5 5 5 4 4 4 5 5 5 5 6 6 6 6 5 6
4 6 2 3 7 5 7 12 9 12 13 10 25 9 19 13 8 9 7 5 6 9 8 8 7 7 6 5 5 5 5 5 4 4 4 6 5 5 6 6 6 7 6 6
1 3 2 6 5 5 6 16 16 18 16 12 21 25 25 20 2 6 10 5 9 10 10 8 6 5 7 7 7 4 6 6 2 3 6 5 5 5 6 7 7 7 7 7
1 4 4 8 3 5 8 13 13 4 3 6 6 14 4 6 7 8 10 6 10 10 9 9 9 7 7 7 6 7 6 1 3 4 6 7 5 6 7 6 6 8 9 7
5 5 2 6 5 0 9 4 4 9 6 10 11 16 9 7 7 8 6 5 9 7 7 7 6 5 7 5 5 5 4 5 6 6 7 7 6 7 7 6 7 7 7 7
1 5 2 2 3 10 9 4 2 4 6 7 9 11 8 4 5 9 7 8 7 6 6 7 6 5 4 5 7 4 4 5 3 8 9 8 6 7 7 8 9 9 8 8
1 1 4 4 2 6 6 1 1 1 6 4 2 7 7 1 4 9 4 4 6 7 5 6 7 5 6 8 6 4 7 6 8 10 10 7 7 7 8 9 10 8 7 9
2 2 12 6 5 11 12 5 3 6 7 4 3 7 4 6 11 5 4 5 4 6 7 6 6 6 7 6 5 6 6 8 11 8 7 7 7 8 8 9 7 8 9 9
7 6 6 2 2 12 5 2 5 3 5 5 9 9 9 13 11 7 8 7 7 9 7 8 6 7 7 6 5 7 8 11 7 7 7 7 8 8 8 8 9 8 7 9
5 7 6 11 11 2 4 5 5 5 11 8 10 17 13 15 9 13 12 11 10 9 8 5 6 6 6 6 5 8 11 8 7 6 7 8 10 10 10 9 10 8 8 9
5 5 5 3 5 9 6 6 5 6 12 16 16 16 16 17 17 15 12 12 10 8 7 5 4 7 8 7 7 9 9 8 5 8 10 10 9 10 8 6 7 8 8 8
4 2 4 7 10 7 3 5 11 13 14 16 16 16 17 16 17 17 16 13 11 9 7 5 7 7 11 7 9 7 8 4 8 9 11 11 9 9 9 9 9 8 9 10
7 7 4 7 6 2 9 12 9 12 12 14 12 16 18 14 17 18 15 13 11 10 7 6 8 8 12 9 9 7 8 6 8 10 9 8 8 8 8 9 11 17 23 24
Wind_Direction
3 65 56 345 313 284 309 293 310 320 35 348 330 279 287 111 86 149 164 281 353 1 333 352 350 341 351 159 155 165 159 161 144 124 122 123 234 252 279 254 258 251 250 265
30 80 304 293 18 67 36 33 323 290 14 5 3 280 261 199 214 203 202 230 330 349 349 354 358 1 358 303 181 153 161 166 171 136 148 137 163 241 254 276 264 250 251 256
102 355 333 60 30 41 45 30 350 257 326 59 337 291 238 215 171 166 166 192 192 64 7 354 3 2 6 16 327 172 167 168 162 149 96 62 48 22 354 323 311 294 259 257
82 325 51 73 77 26 169 319 306 357 46 254 23 277 285 224 225 218 211 219 197 150 47 21 15 9 6 0 29 113 130 142 149 156 155 156 171 217 252 300 314 324 332 295
268 12 23 61 340 332 146 38 42 71 77 39 354 63 270 44 249 232 219 213 209 194 143 59 30 16 4 13 31 67 87 78 79 101 107 130 206 249 316 322 338 335 326 313
68 53 52 16 28 37 33 46 38 56 82 16 291 114 279 197 215 203 195 202 200 190 169 104 50 44 27 21 38 52 72 61 62 75 66 73 59 355 351 335 332 327 314 316
355 13 337 29 353 34 60 47 335 355 10 227 308 320 244 294 279 233 194 192 199 202 190 71 66 55 52 48 47 57 59 49 34 50 51 46 42 35 6 345 331 332 330 326
100 334 24 353 79 159 68 132 148 227 298 272 359 244 254 280 321 312 161 164 182 199 197 184 150 100 65 51 44 53 55 54 41 42 31 30 37 29 14 352 331 322 309 308
94 290 344 30 9 60 272 57 153 103 42 38 249 293 309 6 329 115 159 172 201 206 199 190 180 170 119 62 42 37 42 37 29 19 16 19 16 13 349 339 330 315 311 315
149 355 317 300 74 24 132 158 41 2 329 288 294 287 250 293 249 233 214 210 215 211 205 202 192 192 198 153 80 47 27 9 338 5 14 3 343 342 332 327 323 317 305 310
120 98 286 36 196 183 28 343 40 125 144 197 284 257 214 227 235 223 229 224 221 213 207 206 215 240 255 247 244 315 345 337 331 342 338 340 328 327 325 316 312 310 305 304
80 140 258 230 251 251 201 204 165 129 263 240 202 260 37 217 239 244 268 248 240 224 222 217 223 229 230 229 238 263 286 296 292 298 311 314 317 321 317 311 310 311 304 303
165 310 349 336 12 353 233 221 172 118 78 223 138 270 324 301 306 259 244 239 235 222 242 247 244 229 227 232 237 248 253 264 284 296 302 304 302 301 295 293 294 297 296 297
127 197 184 200 209 148 221 240 204 146 149 256 215 271 306 284 271 278 264 252 244 216 216 232 242 228 224 231 235 250 263 256 264 266 269 275 268 264 264 270 274 277 274 281
126 215 234 253 223 205 217 238 208 198 223 209 271 246 268 275 251 256 260 252 222 234 226 226 227 229 231 241 248 253 261 254 235 248 258 266 280 287 288 281 275 272 265 267
95 264 100 285 319 244 265 257 246 235 256 270 266 280 268 283 326 284 266 251 246 239 227 226 231 240 247 238 245 245 252 268 174 267 280 281 284 284 280 279 279 277 271 262
203 112 56 264 355 342 303 237 224 194 220 168 211 251 19 294 283 267 273 223 242 240 222 224 223 229 240 240 231 255 256 284 271 253 278 272 261 268 270 265 270 270 273 271
160 93 110 270 15 324 248 204 180 196 237 236 284 277 280 243 259 274 234 232 256 238 229 234 238 245 245 235 239 247 255 260 256 269 264 272 270 271 276 275 271 269 268 255
226 113 315 239 203 304 301 30 78 171 276 244 230 269 285 285 282 283 224 209 232 226 229 225 219 225 256 256 254 217 273 253 239 261 256 256 250 260 268 273 275 275 279 273
40 147 149 71 142 248 239 358 350 171 297 359 210 288 286 87 323 287 239 216 231 230 230 226 236 234 231 252 240 209 247 245 251 252 248 246 246 245 254 258 265 264 260 264
132 196 226 214 251 281 253 251 351 78 268 323 270 283 245 218 246 282 239 215 193 211 225 235 243 242 245 248 245 249 248 247 256 255 242 243 246 247 246 256 250 255 257 261
187 163 199 136 174 278 170 87 160 251 311 292 300 278 260 250 270 259 238 251 231 231 237 239 239 244 244 240 229 253 254 262 254 249 247 251 254 258 264 255 264 255 249 256
271 200 184 183 212 246 204 248 282 296 299 303 301 302 284 275 260 255 248 242 237 230 233 236 234 255 263 258 230 255 262 265 263 250 252 255 260 259 259 260 266 269 259 264
242 196 222 51 247 255 285 309 297 326 323 315 306 298 295 280 275 269 258 253 246 243 240 229 231 254 265 254 239 232 265 269 259 267 269 268 262 268 261 251 257 261 264 266
208 86 219 260 285 314 360 343 328 330 326 323 317 308 300 296 287 279 272 262 250 245 238 213 231 241 253 250 256 254 259 232 263 269 272 270 269 266 265 254 260 256 257 252
183 215 186 272 18 299 333 335 334 337 326 320 317 316 311 300 291 288 278 262 255 248 237 232 236 238 254 251 255 253 252 237 252 268 273 267 266 264 262 270 278 264 268 273